Location: Zlin
(49.2330°N, 17.6670°E)
Time: 09:30:35
(UTC+01:00)

ISS - Visible Passes

Search period start: 28 November 2020 00:00
Search period end: 08 December 2020 00:00
Orbit: 418 x 420 km, 51.6° (Epoch: 28 November)

Date Brightness Start Highest point End Pass type
(mag) Time Alt. Az. Time Alt. Az. Time Alt. Az.
28 Nov -3.8 16:37:18 10° WSW 16:40:41 89° NNW 16:43:59 10° ENE visible
28 Nov -2.8 18:14:21 10° WNW 18:16:57 43° NW 18:16:57 43° NW visible
29 Nov -3.5 17:26:45 10° W 17:30:04 55° N 17:31:17 33° ENE visible
29 Nov -0.5 19:03:43 10° WNW 19:04:15 14° WNW 19:04:15 14° WNW visible
30 Nov -3.5 16:39:08 10° W 16:42:29 61° N 16:45:39 11° ENE visible
30 Nov -2.7 18:16:11 10° WNW 18:18:36 42° NW 18:18:36 42° NW visible
01 Dec -3.6 17:28:35 10° WNW 17:31:56 56° N 17:32:59 36° ENE visible
01 Dec -0.5 19:05:27 10° WNW 19:05:57 13° WNW 19:05:57 13° WNW visible
02 Dec -3.5 16:40:58 10° WNW 16:44:18 54° N 16:47:24 11° E visible
02 Dec -2.8 18:17:54 10° WNW 18:20:22 46° WNW 18:20:22 46° WNW visible
03 Dec -3.8 17:30:19 10° WNW 17:33:41 76° NNE 17:34:51 38° E visible
03 Dec -0.4 19:07:18 10° W 19:07:50 13° W 19:07:50 13° W visible
04 Dec -3.7 16:42:43 10° WNW 16:46:04 63° N 16:49:25 10° E visible
04 Dec -2.6 18:19:36 10° WNW 18:22:24 41° SW 18:22:24 41° SW visible
05 Dec -3.4 17:31:57 10° WNW 17:35:18 63° SSW 17:37:06 24° SE visible
05 Dec -0.3 19:09:45 10° WSW 19:10:05 11° WSW 19:10:05 11° WSW visible
06 Dec -3.7 16:44:21 10° WNW 16:47:43 85° SSW 16:51:05 10° ESE visible
06 Dec -1.5 18:21:35 10° W 18:24:10 21° SW 18:24:59 19° SSW visible
07 Dec -1.9 17:33:43 10° W 17:36:43 30° SW 17:39:43 10° SSE visible
